This demonstration page uses our WeatherBlox Daily Observations layout. Learn more.

Left ArrowRight Arrow

39.51506, -84.39828

Hourly Observations for November 8, 2021

Temp ( °F °C ) Dew Point ( °F °C ) Humidity (%) Winds ( mph kmh ) Pressure ( in mb ) Visibility ( mi km ) Precip ( " mm )
12:15 am 00:15 Clear 35 1.8 35 1.6 99 99 Calm 30.26 1025 10 16 0.00 0.00
12:35 am 00:35 Clear 35 1.8 35 1.6 99 99 Calm 30.26 1025 10 16 0.00 0.00
12:55 am 00:55 Clear 35 1.6 34 1.3 98 98 Calm 30.26 1025 10 16 0.00 0.00
1:15 am 01:15 Clear 34 1.1 34 1 99 99 Calm 30.26 1025 7 11 0.00 0.00
1:35 am 01:35 Clear 34 1.1 34 0.9 99 99 Calm 30.26 1025 7 11 0.00 0.00
1:55 am 01:55 Clear 34 1.2 34 1 99 99 Calm 30.27 1025 10 16 0.00 0.00
2:15 am 02:15 Clear 34 1.3 34 1.2 99 99 Calm 30.27 1025 7 11 0.00 0.00
2:35 am 02:35 Clear 34 1.1 34 1 99 99 Calm 30.27 1025 7 11 0.00 0.00
2:55 am 02:55 Clear with Mist and Fog 34 1.2 34 1 99 99 Calm 30.27 1025 5 8 0.00 0.00
3:15 am 03:15 Mostly Cloudy with Mist and Fog 31 -0.4 31 -0.5 99 99 Calm 30.29 1026 1 2 0.00 0.00
3:35 am 03:35 Mostly Cloudy with Mist and Fog 33 0.3 32 0.1 99 99 Calm 30.28 1026 2 2 0.00 0.00
3:55 am 03:55 Clear 31 -0.8 30 -1 99 99 Calm 30.29 1026 10 16 0.00 0.00
4:15 am 04:15 Mostly Cloudy with Mist and Fog 32 0.2 32 0 99 99 Calm 30.28 1026 1 1 0.00 0.00
4:35 am 04:35 Mostly Cloudy with Freezing Fog 30 -1.2 29 -1.4 99 99 Calm 30.30 1026 1 1 0.00 0.00
4:55 am 04:55 Mostly Cloudy with Mist and Fog 32 0.2 32 0 99 99 Calm 30.29 1026 1 1 0.00 0.00
5:15 am 05:15 Mostly Cloudy with Mist and Fog 31 -0.4 31 -0.6 99 99 Calm 30.30 1026 1 1 0.00 0.00
5:35 am 05:35 Clear with Mist and Fog 31 -0.3 31 -0.5 99 99 Calm 30.30 1026 2 3 0.00 0.00
5:55 am 05:55 Mostly Cloudy with Freezing Fog 30 -0.9 30 -1.1 99 99 Calm 30.31 1026 1 1 0.00 0.00
6:15 am 06:15 Cloudy with Freezing Fog 31 -0.4 31 -0.6 99 99 Calm 30.31 1026 0 0 0.00 0.00
6:35 am 06:35 Cloudy with Freezing Fog 31 -0.8 30 -1 99 99 Calm 30.31 1026 0 0 0.00 0.00
6:55 am 06:55 Mostly Cloudy with Freezing Fog 31 -0.4 31 -0.6 99 99 Calm 30.31 1026 0 0 0.00 0.00
7:15 am 07:15 Cloudy with Freezing Fog 31 -0.4 31 -0.6 99 99 Calm 30.32 1027 N/A 0.00 0.00
7:35 am 07:35 Cloudy with Freezing Fog 31 -0.7 30 -0.9 99 99 Calm 30.32 1027 N/A 0.00 0.00
7:55 am 07:55 Mostly Cloudy with Fog 31 -0.3 31 -0.5 99 99 Calm 30.33 1027 1 1 0.00 0.00
8:15 am 08:15 Sunny with Mist and Fog 33 0.4 32 0.2 99 99 Calm 30.33 1027 5 8 0.00 0.00
8:35 am 08:35 Sunny with Mist and Fog 36 2.3 36 2.1 99 99 Calm 30.33 1027 5 8 0.00 0.00
8:55 am 08:55 Sunny 40 4.5 40 4.2 98 98 NW 3 6 30.32 1027 7 11 0.00 0.00
9:15 am 09:15 Sunny 43 6 40 4.6 91 91 W 5 7 30.32 1027 7 11 0.00 0.00
9:35 am 09:35 Sunny 45 7.1 40 4.5 84 84 WSW 3 6 30.32 1027 10 16 0.00 0.00
9:55 am 09:55 Sunny 47 8.6 41 5.2 79 79 SW 6 9 30.31 1027 10 16 0.00 0.00
10:15 am 10:15 Sunny 51 10.8 38 3.4 61 61 SW 7 11 30.31 1026 10 16 0.00 0.00
10:35 am 10:35 Sunny 55 12.5 39 3.9 56 56 SSW 7 11 30.29 1026 10 16 0.00 0.00
10:55 am 10:55 Sunny 57 13.7 39 3.9 52 52 SSW 9 15 30.29 1026 10 16 0.00 0.00
11:15 am 11:15 Sunny 58 14.6 39 4.1 50 50 S 8 13 30.29 1026 10 16 0.00 0.00
11:35 am 11:35 Sunny 61 16.1 39 3.7 44 44 SSW 14 22 30.27 1025 10 16 0.00 0.00
11:55 am 11:55 Sunny 63 17.3 39 3.7 41 41 SW 13 20 30.26 1025 10 16 0.00 0.00
12:15 pm 12:15 Sunny 64 17.7 38 3.3 38 38 SSW 12 19 30.24 1024 10 16 0.00 0.00
12:35 pm 12:35 Sunny 65 18.5 37 2.6 35 35 SSW 13 20 30.24 1024 10 16 0.00 0.00
12:55 pm 12:55 Sunny 67 19.2 36 2.1 32 32 SW 13 20 30.23 1024 10 16 0.00 0.00
1:15 pm 13:15 Sunny 68 19.9 35 1.5 29 29 SW 15 24 30.21 1023 10 16 0.00 0.00
1:35 pm 13:35 Sunny 68 20 35 1.5 29 29 SW 10 17 30.21 1023 10 16 0.00 0.00
1:55 pm 13:55 Sunny 68 20.1 35 1.9 30 30 SW 12 19 30.20 1023 10 16 0.00 0.00
2:15 pm 14:15 Sunny 69 20.5 36 2 29 29 SW 12 19 30.20 1023 10 16 0.00 0.00
2:35 pm 14:35 Sunny 69 20.4 35 1.6 29 29 SW 14 22 30.19 1022 10 16 0.00 0.00
2:55 pm 14:55 Sunny 69 20.5 36 2 29 29 SSW 10 17 30.19 1022 10 16 0.00 0.00
3:15 pm 15:15 Sunny 69 20.7 36 2.1 29 29 SSW 12 19 30.19 1022 10 16 0.00 0.00
3:35 pm 15:35 Sunny 69 20.5 35 1.7 29 29 SSW 15 24 30.19 1022 10 16 0.00 0.00
3:55 pm 15:55 Sunny 68 20 35 1.8 30 30 SSW 10 17 30.18 1022 10 16 0.00 0.00
4:15 pm 16:15 Sunny 68 19.9 35 1.8 30 30 SSW 12 19 30.18 1022 10 16 0.00 0.00
4:35 pm 16:35 Sunny 67 19.4 35 1.8 31 31 SSW 15 24 30.19 1022 10 16 0.00 0.00
4:55 pm 16:55 Sunny 64 18 37 2.8 36 36 SSW 8 13 30.19 1022 10 16 0.00 0.00
5:15 pm 17:15 Sunny 62 16.8 37 2.9 40 40 SSW 8 13 30.18 1022 10 16 0.00 0.00
5:35 pm 17:35 Clear 59 15.2 37 2.8 44 44 SW 5 7 30.20 1023 10 16 0.00 0.00
5:55 pm 17:55 Clear 54 12.3 40 4.2 58 58 WSW 5 7 30.21 1023 10 16 0.00 0.00
6:15 pm 18:15 Clear 52 10.9 40 4.7 66 66 Calm 30.22 1023 10 16 0.00 0.00
6:35 pm 18:35 Clear 50 9.9 42 5.4 74 74 Calm 30.22 1023 10 16 0.00 0.00
6:55 pm 18:55 Clear 48 9 41 5 76 76 WSW 5 7 30.22 1023 10 16 0.00 0.00
7:15 pm 19:15 Clear 48 8.9 41 5 77 77 SW 6 9 30.23 1024 10 16 0.00 0.00
7:35 pm 19:35 Clear 47 8.1 40 4.4 78 78 SW 6 9 30.22 1023 10 16 0.00 0.00
7:55 pm 19:55 Clear 48 8.8 39 4.1 73 73 WSW 5 7 30.23 1024 10 16 0.00 0.00
8:15 pm 20:15 Clear 47 8.5 41 4.9 78 78 WSW 5 7 30.22 1023 10 16 0.00 0.00
8:35 pm 20:35 Clear 44 6.8 41 4.9 88 88 WSW 3 6 30.23 1024 10 16 0.00 0.00
9:15 pm 21:15 Clear 44 6.9 40 4.6 85 85 W 3 6 30.23 1024 10 16 0.00 0.00
9:35 pm 21:35 Clear 43 5.9 40 4.2 89 89 Calm 30.23 1024 10 16 0.00 0.00
9:55 pm 21:55 Clear 43 6.3 42 5.4 94 94 Calm 30.23 1024 10 16 0.00 0.00
10:15 pm 22:15 Clear 42 5.5 41 5 97 97 Calm 30.23 1024 10 16 0.00 0.00
10:35 pm 22:35 Clear 41 5.2 41 5 99 99 Calm 30.23 1024 10 16 0.00 0.00
10:55 pm 22:55 Clear with Mist and Fog 40 4.4 40 4.3 99 99 Calm 30.23 1024 2 3 0.00 0.00
11:15 pm 23:15 Clear 41 5 41 4.8 99 99 Calm 30.23 1024 10 16 0.00 0.00
11:35 pm 23:35 Clear 40 4.5 40 4.3 99 99 Calm 30.23 1024 10 16 0.00 0.00
11:55 pm 23:55 Clear 39 3.9 39 3.7 99 99 Calm 30.23 1024 10 16 0.00 0.00

Powered by AerisWeather